• In Kazakhstan
  • List of Countries
  • For 7 days
  • Water Temperature
  • Satellite Maps
  • Weather Map
  • News
  • Weather Widgets
  • user-avatar
    Login

    Hourly Weather Banda

    Today, 22 November, Wednesday

    Time Temperature Precipitation Wind Pressure Humidity
    00:00 +23°C° 0 mm 1 mps 720 mmHg 38%
    01:00 +22°C° 0 mm 1 mps 719 mmHg 38%
    02:00 +22°C° 0 mm 1 mps 719 mmHg 38%
    03:00 +21°C° 0 mm 1 mps 719 mmHg 39%
    04:00 +20°C° 0 mm 2 mps 719 mmHg 40%
    05:00 +19°C° 0 mm 1 mps 719 mmHg 41%
    06:00 +20°C° 0 mm 1 mps 720 mmHg 39%
    07:00 +20°C° 0 mm 2 mps 720 mmHg 37%
    08:00 +21°C° 0 mm 2 mps 721 mmHg 36%
    09:00 +23°C° 0 mm 2 mps 721 mmHg 32%
    10:00 +25°C° 0 mm 2 mps 721 mmHg 29%
    11:00 +27°C° 0 mm 2 mps 721 mmHg 28%
    12:00 +28°C° 0 mm 2 mps 720 mmHg 29%
    13:00 +28°C° 0 mm 2 mps 720 mmHg 30%
    14:00 +29°C° 0 mm 2 mps 719 mmHg 31%
    15:00 +27°C° 0 mm 2 mps 719 mmHg 34%
    16:00 +26°C° 0 mm 2 mps 719 mmHg 36%
    17:00 +24°C° 0 mm 2 mps 718 mmHg 40%
    18:00 +24°C° 0 mm 2 mps 719 mmHg 40%
    19:00 +23°C° 0 mm 2 mps 719 mmHg 41%
    20:00 +21°C° 0 mm 2 mps 719 mmHg 41%
    21:00 +20°C° 0 mm 2 mps 719 mmHg 41%
    22:00 +19°C° 0 mm 2 mps 719 mmHg 40%
    23:00 +19°C° 0 mm 2 mps 719 mmHg 40%

    Tomorrow, 23 November, Thursday

    Time Temperature Precipitation Wind Pressure Humidity
    00:00 +18°C° 0 mm 2 mps 719 mmHg 39%
    01:00 +18°C° 0 mm 2 mps 719 mmHg 38%
    02:00 +18°C° 0 mm 1 mps 718 mmHg 38%
    03:00 +18°C° 0 mm 1 mps 718 mmHg 37%
    04:00 +18°C° 0 mm 1 mps 719 mmHg 36%
    05:00 +16°C° 0 mm 1 mps 719 mmHg 35%
    06:00 +19°C° 0 mm 1 mps 719 mmHg 34%
    07:00 +20°C° 0 mm 1 mps 719 mmHg 32%
    08:00 +21°C° 0 mm 1 mps 720 mmHg 31%
    09:00 +23°C° 0 mm 1 mps 720 mmHg 29%
    10:00 +25°C° 0 mm 1 mps 720 mmHg 27%
    11:00 +27°C° 0 mm 1 mps 720 mmHg 25%
    12:00 +28°C° 0 mm 1 mps 720 mmHg 24%
    13:00 +28°C° 0 mm 2 mps 719 mmHg 24%
    14:00 +29°C° 0 mm 2 mps 719 mmHg 24%
    15:00 +27°C° 0 mm 2 mps 719 mmHg 26%
    16:00 +26°C° 0 mm 2 mps 719 mmHg 27%
    17:00 +24°C° 0 mm 2 mps 719 mmHg 29%
    18:00 +23°C° 0 mm 2 mps 719 mmHg 28%
    19:00 +21°C° 0 mm 2 mps 719 mmHg 27%
    20:00 +20°C° 0 mm 2 mps 720 mmHg 26%
    21:00 +19°C° 0 mm 2 mps 720 mmHg 25%
    22:00 +18°C° 0 mm 2 mps 720 mmHg 24%
    23:00 +19°C° 0 mm 1 mps 720 mmHg 24%

    Day after tomorrow, 24 November, Friday

    Time Temperature Precipitation Wind Pressure Humidity
    00:00 +18°C° 0 mm 1 mps 719 mmHg 24%
    01:00 +18°C° 0 mm 1 mps 719 mmHg 24%
    02:00 +16°C° 0 mm 1 mps 719 mmHg 24%
    03:00 +16°C° 0 mm 1 mps 719 mmHg 25%
    04:00 +15°C° 0 mm 1 mps 719 mmHg 25%
    05:00 +15°C° 0 mm 1 mps 719 mmHg 26%
    06:00 +16°C° 0 mm 1 mps 720 mmHg 25%
    07:00 +17°C° 0 mm 0 mps 720 mmHg 25%
    08:00 +18°C° 0 mm 0 mps 721 mmHg 24%
    09:00 +22°C° 0 mm 1 mps 721 mmHg 21%
    10:00 +25°C° 0 mm 1 mps 721 mmHg 18%
    11:00 +27°C° 0 mm 1 mps 721 mmHg 15%
    12:00 +27°C° 0 mm 1 mps 721 mmHg 14%
    13:00 +28°C° 0 mm 2 mps 720 mmHg 13%
    14:00 +28°C° 0 mm 2 mps 720 mmHg 12%
    15:00 +27°C° 0 mm 2 mps 719 mmHg 14%
    16:00 +25°C° 0 mm 2 mps 719 mmHg 16%
    17:00 +23°C° 0 mm 2 mps 719 mmHg 18%
    18:00 +22°C° 0 mm 1 mps 720 mmHg 18%
    19:00 +21°C° 0 mm 1 mps 720 mmHg 18%
    20:00 +20°C° 0 mm 1 mps 721 mmHg 19%
    21:00 +20°C° 0 mm 1 mps 720 mmHg 19%
    22:00 +19°C° 0 mm 1 mps 720 mmHg 19%
    23:00 +19°C° 0 mm 1 mps 720 mmHg 19%

    25 November, Saturday

    Time Temperature Precipitation Wind Pressure Humidity
    00:00 +18°C° 0 mm 1 mps 720 mmHg 20%
    01:00 +18°C° 0 mm 1 mps 720 mmHg 20%
    02:00 +16°C° 0 mm 1 mps 719 mmHg 21%
    03:00 +16°C° 0 mm 1 mps 719 mmHg 21%
    04:00 +15°C° 0 mm 0 mps 719 mmHg 21%
    05:00 +14°C° 0 mm 0 mps 719 mmHg 22%
    06:00 +16°C° 0 mm 0 mps 720 mmHg 22%
    07:00 +17°C° 0 mm 0 mps 721 mmHg 22%
    08:00 +19°C° 0 mm 0 mps 722 mmHg 22%
    09:00 +23°C° 0 mm 1 mps 722 mmHg 20%
    10:00 +25°C° 0 mm 1 mps 722 mmHg 17%
    11:00 +27°C° 0 mm 1 mps 722 mmHg 15%
    12:00 +28°C° 0 mm 1 mps 721 mmHg 15%
    13:00 +29°C° 0 mm 1 mps 721 mmHg 14%
    14:00 +27°C° 0 mm 0 mps 720 mmHg 13%
    15:00 +25°C° 0 mm 0 mps 720 mmHg 15%
    16:00 +25°C° 0 mm 1 mps 720 mmHg 17%
    17:00 +24°C° 0 mm 1 mps 720 mmHg 19%
    18:00 +23°C° 0 mm 1 mps 720 mmHg 20%
    19:00 +22°C° 0 mm 1 mps 721 mmHg 20%
    20:00 +21°C° 0 mm 1 mps 721 mmHg 21%
    21:00 +20°C° 0 mm 1 mps 721 mmHg 21%
    22:00 +20°C° 0 mm 1 mps 721 mmHg 22%
    23:00 +19°C° 0 mm 1 mps 721 mmHg 22%

    26 November, Sunday

    Time Temperature Precipitation Wind Pressure Humidity
    00:00 +19°C° 0 mm 1 mps 721 mmHg 22%
    01:00 +18°C° 0 mm 1 mps 720 mmHg 23%
    02:00 +18°C° 0 mm 1 mps 720 mmHg 23%
    03:00 +16°C° 0 mm 0 mps 720 mmHg 24%
    04:00 +15°C° 0 mm 0 mps 720 mmHg 24%
    05:00 +15°C° 0 mm 0 mps 720 mmHg 25%
    06:00 +16°C° 0 mm 0 mps 721 mmHg 24%
    07:00 +18°C° 0 mm 0 mps 722 mmHg 24%
    08:00 +21°C° 0 mm 1 mps 722 mmHg 24%
    09:00 +23°C° 0 mm 1 mps 722 mmHg 21%
    10:00 +26°C° 0 mm 1 mps 722 mmHg 19%
    11:00 +28°C° 0 mm 2 mps 722 mmHg 16%
    12:00 +28°C° 0 mm 2 mps 722 mmHg 15%
    13:00 +29°C° 0 mm 2 mps 721 mmHg 14%
    14:00 +30°C° 0 mm 2 mps 720 mmHg 14%
    15:00 +28°C° 0 mm 2 mps 720 mmHg 16%
    16:00 +26°C° 0 mm 2 mps 720 mmHg 18%
    17:00 +24°C° 0 mm 1 mps 720 mmHg 20%
    18:00 +23°C° 0 mm 1 mps 720 mmHg 21%
    19:00 +22°C° 0 mm 1 mps 721 mmHg 22%
    20:00 +21°C° 0 mm 1 mps 721 mmHg 22%
    21:00 +20°C° 0 mm 1 mps 721 mmHg 23%
    22:00 +20°C° 0 mm 1 mps 721 mmHg 23%
    23:00 +19°C° 0 mm 1 mps 721 mmHg 24%

    27 November, Monday

    Time Temperature Precipitation Wind Pressure Humidity
    00:00 +19°C° 0 mm 1 mps 720 mmHg 24%
    01:00 +18°C° 0 mm 1 mps 720 mmHg 25%
    02:00 +18°C° 0 mm 1 mps 719 mmHg 26%
    03:00 +16°C° 0 mm 1 mps 720 mmHg 26%
    04:00 +16°C° 0 mm 1 mps 720 mmHg 26%
    05:00 +16°C° 0 mm 1 mps 720 mmHg 27%
    06:00 +18°C° 0 mm 1 mps 720 mmHg 27%
    07:00 +20°C° 0 mm 1 mps 721 mmHg 26%
    08:00 +21°C° 0 mm 1 mps 721 mmHg 26%
    09:00 +23°C° 0 mm 1 mps 721 mmHg 23%
    10:00 +25°C° 0 mm 2 mps 721 mmHg 20%
    11:00 +27°C° 0 mm 2 mps 721 mmHg 17%
    12:00 +28°C° 0 mm 2 mps 721 mmHg 16%
    13:00 +28°C° 0 mm 2 mps 720 mmHg 15%
    14:00 +29°C° 0 mm 2 mps 719 mmHg 14%
    15:00 +27°C° 0 mm 2 mps 719 mmHg 16%
    16:00 +25°C° 0 mm 1 mps 719 mmHg 19%
    17:00 +23°C° 0 mm 1 mps 719 mmHg 21%
    18:00 +22°C° 0 mm 1 mps 719 mmHg 22%
    19:00 +21°C° 0 mm 1 mps 720 mmHg 23%
    20:00 +20°C° 0 mm 1 mps 720 mmHg 24%
    21:00 +20°C° 0 mm 1 mps 720 mmHg 25%
    22:00 +19°C° 0 mm 1 mps 719 mmHg 25%
    23:00 +19°C° 0 mm 1 mps 719 mmHg 26%
    Show more